Wind_Speed
55 54 51 48 47 45 43 42 45 49 52 53 55 52 50 50 52 53 53 54 53 54 55 55 56 57 58 59 60 60 61 60 58 58 59 59 61 63 64 64 64 67 71
54 53 52 53 50 48 49 48 48 49 53 55 56 54 53 51 50 50 50 51 52 53 54 56 57 58 58 58 58 58 57 56 57 56 59 63 65 64 64 65 68 72 71
54 53 52 50 51 54 55 52 52 52 52 53 54 55 52 50 51 51 51 52 52 52 53 53 54 54 54 54 54 55 57 57 57 55 58 61 64 66 67 67 74 72 71
54 54 56 57 55 54 53 54 51 48 48 49 50 51 52 52 51 51 51 52 50 50 49 49 49 50 53 55 57 57 58 58 58 58 60 63 65 66 67 70 74 75 73
62 60 57 57 55 55 51 51 51 49 49 50 50 51 54 54 53 53 54 55 54 53 53 53 53 54 56 58 59 60 61 60 62 63 64 69 69 69 70 76 75 75 76
60 59 58 58 58 55 53 52 53 53 54 54 55 54 54 56 57 58 58 57 57 55 56 56 57 58 58 59 61 62 64 65 66 67 68 67 70 73 76 76 76 76 74
60 60 60 60 60 60 59 58 57 58 59 59 58 59 58 58 60 60 59 59 60 61 61 59 59 58 59 61 64 67 68 68 70 71 70 70 75 81 79 74 72 72 73
60 60 61 62 64 65 66 66 66 67 67 65 64 61 60 61 61 63 64 66 64 60 58 60 61 62 65 69 70 71 72 72 74 73 76 79 80 72 68 69 69 71 71
71 71 69 68 69 68 68 68 68 69 71 71 70 68 65 63 63 61 62 63 64 68 69 71 71 69 70 72 72 72 75 74 75 76 75 74 69 67 65 67 67 67 66
81 80 78 77 76 75 74 74 75 75 74 74 71 69 68 68 68 68 68 70 70 70 69 70 71 71 72 72 73 75 76 72 68 67 64 63 62 64 62 62 62 62 65
80 80 81 81 77 75 73 76 77 76 74 73 73 73 74 72 71 71 68 68 69 67 66 68 69 70 70 72 69 56 55 60 63 61 59 58 58 59 60 64 66 67 67
73 73 73 72 73 73 73 72 72 73 74 74 76 73 71 68 64 64 64 64 63 60 59 61 62 62 52 48 50 57 63 63 60 60 61 62 62 64 63 64 65 68 71
71 70 70 69 70 69 67 68 67 63 66 63 63 64 58 55 54 57 56 54 50 47 46 45 47 49 53 57 61 60 61 63 64 64 65 64 62 63 65 68 71 72 76
72 71 70 69 68 68 68 66 60 64 58 58 56 54 52 49 46 43 43 44 47 48 50 53 54 56 57 60 60 61 62 63 63 63 62 64 64 67 69 72 74 74 76
75 72 69 63 62 60 60 59 60 58 58 48 48 42 40 40 43 45 47 48 50 50 54 59 61 60 60 60 61 62 61 61 60 61 64 66 69 71 73 75 78 80 81
70 65 62 54 54 55 55 50 47 44 49 41 35 39 41 44 44 49 51 54 54 55 55 55 57 57 57 58 59 59 59 61 64 66 67 70 72 74 77 78 78 81 83
64 60 53 52 51 45 39 32 36 38 38 35 41 46 45 49 51 51 54 55 55 54 55 55 56 56 56 56 57 58 62 65 67 70 71 74 76 78 79 79 80 82 83
58 52 53 58 55 51 46 46 39 37 34 38 45 47 48 48 49 52 54 55 56 55 53 52 53 53 55 58 60 60 64 67 70 73 74 76 78 80 81 83 86 87 87
52 50 48 50 49 45 32 36 41 41 41 43 43 45 48 49 51 53 58 55 53 53 51 51 54 57 58 61 63 66 70 73 76 78 80 81 83 85 88 90 92 90 85
52 48 46 48 51 43 40 41 46 43 44 47 45 47 47 48 51 52 52 52 53 50 50 51 55 58 60 64 67 71 75 78 80 82 86 88 90 92 93 93 91 85 76
39 45 44 53 45 44 43 45 47 47 48 47 46 46 45 47 48 47 47 45 47 49 52 56 59 62 65 68 73 76 79 83 86 88 90 92 94 93 91 88 78 69 66
48 51 55 54 46 46 47 49 54 55 46 44 45 46 47 44 41 39 40 42 46 51 55 59 64 68 71 75 78 82 86 89 90 92 94 93 89 85 79 73 67 63 62
38 47 60 62 54 52 54 52 47 47 46 43 43 43 41 39 39 40 44 49 53 57 61 64 69 73 76 80 84 87 90 93 94 94 88 80 72 70 69 64 61 59 56
38 42 52 56 56 52 48 44 45 44 42 40 38 37 38 39 42 47 51 56 59 61 66 71 75 80 84 87 89 90 92 92 85 72 64 63 64 63 61 58 55 53 50
42 44 48 49 43 41 42 42 42 38 37 38 38 39 42 45 50 53 57 60 64 69 75 78 80 84 88 89 91 89 81 66 60 63 61 60 58 56 54 51 48 47 44
42 40 40 38 39 41 41 40 38 37 38 40 42 45 48 51 54 58 62 67 73 77 80 83 86 90 90 87 76 65 62 64 62 59 57 54 52 49 47 45 42 40 39
Wind_Direction
276 280 283 284 285 288 292 290 287 285 284 283 282 284 285 285 284 286 287 287 286 284 283 282 282 282 284 285 286 287 288 289 289 290 288 293 297 296 297 299 302 304 303
277 280 282 285 286 288 292 288 284 281 280 282 283 284 285 285 284 284 286 286 285 284 282 282 282 283 285 286 287 287 286 288 287 292 294 292 292 294 297 300 301 299 300
281 283 284 283 286 289 291 288 284 279 277 277 279 282 283 283 283 284 285 286 286 285 285 285 284 284 284 284 284 286 288 290 289 288 288 291 292 294 295 299 298 295 296
284 285 287 288 288 288 287 283 281 279 279 278 279 281 284 285 284 285 285 286 287 287 287 287 287 287 286 287 288 290 290 290 290 290 289 289 290 293 295 296 295 295 296
287 288 288 289 289 287 284 281 281 281 281 281 281 282 281 281 281 281 283 284 284 286 289 290 290 290 291 292 293 294 294 294 293 294 292 293 293 291 292 288 290 292 293
287 289 289 289 288 286 283 281 282 281 283 285 286 284 282 280 279 280 281 281 283 285 287 288 289 289 290 294 295 294 293 293 293 293 291 289 287 285 283 285 285 288 292
281 283 284 285 285 284 284 285 285 284 285 285 286 285 284 281 278 278 280 280 281 282 283 285 286 287 290 292 293 292 291 291 291 291 288 283 282 284 287 290 292 290 295
273 275 278 281 282 283 283 284 284 284 284 284 284 283 281 277 277 278 279 278 279 278 282 287 287 289 290 290 291 290 290 289 289 288 283 283 285 287 289 289 292 295 297
281 280 279 278 280 281 280 279 280 281 282 282 283 282 280 278 279 278 278 277 279 281 287 289 293 291 286 286 286 287 286 284 281 280 283 283 288 289 290 291 290 293 296
282 282 282 282 282 281 281 280 280 281 281 282 282 281 280 278 279 278 278 280 281 283 285 285 286 285 284 283 284 283 280 279 282 284 285 286 286 286 288 292 296 297 299
282 283 283 282 280 279 278 278 278 279 278 276 276 275 277 280 280 280 279 279 280 282 281 281 283 283 283 282 280 285 289 292 293 290 285 287 289 291 294 297 298 300 299
281 281 282 281 280 279 280 281 280 279 278 278 279 282 284 284 282 280 278 279 279 280 282 281 278 277 279 290 294 291 292 292 290 290 292 292 293 296 298 299 299 299 300
279 280 280 281 281 281 281 281 281 280 281 279 282 283 283 280 280 279 278 279 278 280 276 279 282 287 291 291 294 294 292 291 290 292 294 296 298 298 299 298 297 298 301
280 281 280 281 280 278 279 281 281 283 278 284 285 282 275 276 277 278 279 281 279 281 282 289 285 285 286 285 287 290 292 291 292 294 296 297 298 296 296 296 298 301 303
279 278 279 280 281 281 282 281 284 285 284 275 270 270 266 271 274 276 279 280 282 281 282 286 288 290 291 290 291 291 292 292 293 294 295 295 294 295 297 298 300 302 303
277 274 274 274 270 272 280 284 283 278 272 261 263 270 272 274 275 277 279 280 282 284 286 286 287 286 287 289 290 290 291 293 294 295 295 296 297 298 299 300 301 302 302
270 266 270 271 268 273 265 268 263 261 264 269 273 275 276 276 281 284 285 284 279 282 285 286 287 288 288 288 289 294 296 297 297 297 299 299 299 299 300 301 302 301 301
264 267 270 267 266 262 259 254 267 271 279 278 278 284 284 288 288 287 286 282 283 284 285 285 285 286 287 290 294 295 296 297 298 297 297 298 299 299 300 300 300 300 300
263 272 274 265 262 261 281 284 281 283 278 278 281 285 289 290 289 287 286 285 284 283 281 283 285 287 292 295 297 297 298 298 298 300 300 300 299 300 302 302 301 300 299
267 270 267 279 263 273 290 297 277 275 279 277 282 287 287 287 285 282 283 282 281 284 287 290 293 294 296 297 298 298 299 300 300 299 300 300 302 302 302 301 299 297 295
278 278 275 277 270 279 284 289 279 276 291 279 279 278 276 277 279 282 285 287 289 290 292 294 296 296 296 297 299 300 299 300 300 300 300 302 302 302 301 298 297 296 294
268 274 276 267 277 289 290 288 293 282 272 272 275 275 277 278 280 284 288 290 291 292 293 293 296 299 300 301 300 300 300 300 300 301 303 303 301 298 298 297 296 295 296
267 268 268 267 273 287 286 286 281 274 271 270 272 273 276 280 284 287 289 290 292 294 297 299 301 301 301 302 302 302 301 301 301 301 301 298 299 298 297 296 294 294 294
277 276 274 276 279 282 282 273 268 263 264 267 274 279 283 287 289 291 293 295 297 300 301 301 301 302 304 305 305 304 303 302 300 299 300 300 300 300 298 294 292 293 293
269 275 283 279 276 272 268 265 263 266 274 280 283 286 289 290 291 294 297 299 300 300 301 302 303 306 307 306 305 303 301 301 301 301 301 301 301 302 300 294 291 291 290
263 269 270 267 264 263 262 266 271 278 283 284 286 288 290 293 296 298 299 299 300 302 304 305 305 306 306 305 304 303 302 300 300 299 299 301 303 304 302 294 289 289 288
Height
5770 5769 5769 5768 5766 5764 5762 5758 5754 5751 5747 5743 5738 5737 5735 5732 5730 5727 5724 5720 5716 5712 5709 5706 5702 5698 5694 5690 5686 5683 5677 5673 5669 5666 5662 5656 5652 5647 5642 5636 5631 5623 5616
5757 5757 5756 5753 5751 5750 5747 5743 5740 5737 5733 5729 5725 5723 5720 5718 5715 5712 5709 5705 5701 5698 5695 5691 5689 5685 5682 5677 5673 5669 5665 5661 5658 5652 5647 5643 5638 5633 5628 5621 5615 5606 5600
5743 5743 5741 5739 5737 5735 5732 5729 5726 5723 5719 5716 5712 5709 5706 5703 5700 5696 5694 5690 5687 5684 5681 5678 5675 5671 5668 5663 5659 5655 5651 5647 5642 5639 5635 5629 5623 5618 5613 5606 5598 5590 5583
5728 5727 5727 5724 5722 5720 5717 5714 5711 5708 5706 5702 5699 5696 5693 5690 5687 5684 5681 5677 5674 5671 5668 5664 5661 5658 5654 5650 5646 5642 5638 5633 5627 5622 5617 5612 5607 5601 5596 5588 5581 5573 5566
5711 5710 5708 5707 5705 5704 5702 5699 5696 5694 5692 5688 5685 5682 5679 5676 5673 5670 5667 5664 5660 5657 5654 5651 5647 5643 5638 5634 5631 5626 5622 5617 5612 5606 5601 5595 5589 5583 5577 5568 5562 5555 5550
5693 5692 5690 5689 5688 5687 5685 5684 5681 5679 5677 5674 5671 5668 5665 5662 5659 5656 5653 5649 5646 5643 5639 5635 5632 5629 5624 5620 5616 5611 5606 5601 5595 5589 5583 5578 5570 5562 5554 5549 5542 5537 5536
5681 5679 5677 5675 5673 5671 5670 5669 5667 5664 5661 5658 5655 5653 5651 5648 5645 5641 5638 5634 5631 5628 5624 5620 5616 5613 5609 5604 5599 5594 5589 5583 5578 5572 5565 5556 5548 5541 5536 5532 5527 5520 5515
5667 5666 5663 5662 5659 5656 5653 5651 5649 5647 5645 5641 5638 5635 5633 5631 5629 5625 5622 5617 5614 5611 5608 5604 5600 5596 5593 5586 5581 5576 5570 5565 5559 5553 5545 5537 5530 5525 5519 5513 5508 5503 5496
5644 5644 5645 5644 5643 5640 5637 5634 5632 5629 5626 5623 5620 5617 5614 5611 5609 5606 5603 5600 5597 5593 5589 5585 5581 5576 5572 5567 5562 5557 5551 5545 5538 5531 5525 5519 5514 5508 5500 5495 5488 5483 5479
5624 5623 5622 5621 5620 5618 5617 5614 5611 5608 5606 5603 5600 5596 5593 5591 5588 5585 5582 5579 5576 5573 5569 5565 5561 5557 5552 5548 5544 5537 5531 5524 5519 5513 5508 5502 5496 5491 5484 5478 5472 5466 5460
5600 5598 5597 5596 5596 5594 5592 5590 5587 5585 5583 5581 5577 5574 5571 5569 5566 5563 5560 5558 5555 5552 5547 5543 5540 5537 5532 5527 5523 5517 5513 5510 5505 5499 5494 5488 5481 5475 5468 5461 5456 5449 5443
5578 5577 5575 5573 5571 5570 5568 5565 5563 5561 5559 5556 5554 5551 5549 5546 5544 5541 5538 5537 5533 5530 5527 5524 5520 5517 5512 5509 5506 5502 5498 5494 5488 5484 5478 5472 5465 5459 5451 5446 5440 5433 5425
5560 5557 5555 5553 5551 5549 5547 5544 5542 5540 5537 5535 5533 5530 5528 5526 5524 5522 5520 5518 5516 5514 5509 5506 5503 5500 5497 5494 5491 5485 5482 5478 5473 5468 5461 5454 5448 5442 5436 5430 5424 5416 5407
5540 5539 5536 5533 5530 5528 5526 5525 5523 5521 5519 5518 5515 5513 5512 5510 5508 5506 5504 5502 5500 5498 5495 5492 5490 5487 5482 5478 5474 5470 5466 5461 5456 5451 5445 5440 5434 5429 5422 5415 5407 5398 5389
5521 5518 5517 5514 5512 5509 5508 5505 5504 5502 5500 5501 5498 5497 5496 5494 5493 5490 5488 5486 5484 5481 5479 5477 5474 5470 5467 5462 5457 5453 5448 5443 5439 5434 5430 5424 5417 5410 5403 5396 5386 5378 5369
5500 5498 5498 5497 5496 5493 5491 5489 5487 5485 5486 5483 5482 5482 5481 5480 5478 5475 5473 5470 5467 5465 5462 5459 5456 5452 5448 5445 5442 5438 5433 5428 5423 5417 5411 5404 5397 5390 5383 5375 5366 5357 5349
5479 5479 5480 5482 5480 5476 5473 5473 5471 5468 5468 5469 5469 5468 5466 5465 5462 5460 5458 5454 5451 5448 5445 5443 5440 5437 5433 5429 5426 5421 5417 5412 5406 5399 5392 5385 5377 5370 5362 5352 5343 5335 5327
5462 5463 5465 5466 5462 5460 5459 5457 5456 5457 5456 5456 5454 5452 5451 5448 5447 5445 5442 5440 5437 5433 5430 5428 5425 5421 5418 5414 5408 5403 5399 5393 5387 5381 5373 5365 5357 5348 5339 5329 5321 5312 5303
5446 5447 5448 5447 5445 5445 5445 5444 5443 5443 5442 5440 5438 5437 5435 5432 5430 5429 5428 5425 5421 5419 5415 5412 5408 5404 5400 5396 5392 5387 5381 5374 5367 5359 5351 5343 5334 5324 5315 5305 5296 5286 5278
5430 5432 5432 5433 5432 5430 5429 5429 5428 5428 5427 5424 5423 5422 5420 5418 5416 5414 5411 5409 5406 5403 5399 5395 5391 5387 5383 5379 5373 5366 5360 5353 5344 5336 5327 5318 5309 5299 5290 5280 5270 5261 5254
5416 5418 5418 5418 5418 5417 5416 5415 5414 5412 5411 5409 5407 5407 5405 5403 5401 5399 5396 5393 5391 5387 5384 5379 5376 5371 5365 5359 5353 5346 5338 5330 5321 5312 5302 5292 5283 5273 5262 5253 5244 5237 5232
5403 5404 5404 5404 5403 5402 5401 5400 5400 5398 5396 5395 5395 5395 5392 5390 5387 5384 5382 5379 5376 5372 5367 5362 5358 5353 5346 5340 5332 5324 5315 5306 5296 5286 5275 5265 5254 5245 5236 5228 5222 5218 5214
5388 5391 5390 5389 5388 5388 5389 5388 5387 5386 5385 5383 5382 5380 5378 5376 5373 5371 5367 5363 5359 5355 5350 5344 5338 5331 5325 5318 5310 5300 5290 5280 5269 5259 5248 5239 5230 5222 5215 5209 5204 5200 5197
5375 5376 5376 5376 5376 5374 5374 5374 5373 5372 5371 5370 5369 5367 5364 5362 5359 5355 5351 5346 5341 5336 5330 5324 5318 5311 5303 5294 5284 5273 5263 5253 5242 5232 5225 5219 5211 5203 5197 5191 5187 5184 5182
5361 5363 5363 5363 5363 5362 5362 5362 5362 5360 5359 5357 5355 5352 5350 5347 5343 5339 5334 5329 5324 5317 5310 5303 5295 5286 5278 5267 5256 5247 5236 5227 5221 5214 5207 5201 5193 5186 5180 5175 5172 5170 5168
5349 5350 5351 5352 5352 5352 5352 5351 5349 5348 5346 5344 5341 5339 5335 5331 5326 5321 5317 5311 5304 5296 5288 5279 5270 5261 5251 5241 5232 5223 5215 5208 5201 5195 5190 5184 5177 5171 5165 5160 5158 5157 5155